Location: Unspecified
(0.0000°N, 0.0000°E)
Time: 02:40:19
(UTC+00:00)

Explorer 11/Cluster Stage 4 - Pass Details

Date: 19 April 2026
Orbit: 463 x 1174 km, 28.8° (Epoch: 15 May)

Event Time Altitude Azimuth Distance (km) Brightness Sun altitude
Exits shadow 04:54:39 15° 205° (SSW) 1,495 7.7 -15.8°
Maximum altitude 04:57:28 32° 148° (SSE) 1,004 7.3 -15.1°
Drops below altitude 10° 05:01:41 10° 84° (E) 2,059 10.2 -14.1°
Sets 05:04:31 0° 75° (ENE) 3,107 11.7 -13.4°
